カタログに戻る

DELTA 1 DEB

運用中SSO
NORAD 12257·DEBRIS·🇺🇸 United States

打ち上げ Mar 5, 1978 から Vandenberg Space Force Base

Loading…

次のパス (今後24時間)

TLE

最新Source: Space-Track

元期: Sep 13, 2026, 20:57 UTC

1 12257U 78026DA  26256.87309378  .00000292  00000-0  20147-3 0  9996
2 12257  99.3303 215.9888 0101347  33.8299 326.9278 14.04926766328776

AllMySatでDELTA 1 DEBをリアルタイム追跡

Download on the App Store